Regional Weather Roundup
Issued by NWS Bismarck, ND

Home | Current Version | Previous Version | Text Only | Print | Product List | Glossary On
Versions: 1 2 3 4 5 6 7 8 9 10 11 12 13 14 15 16 17 18 19 20 21 22 23 24 25 26 27 28 29 30 31 32 33 34 35 36 37 38 39 40 41 42 43 44 45 46 47 48 49 50
000
ASUS43 KBIS 241302
RWRBIS

NWR BROADCAST TEXT
NATIONAL WEATHER SERVICE BISMARCK ND
700 AM CST TUE JAN 24 2017

NOTE: "FAIR" INDICATES FEW OR NO CLOUDS BELOW 12,000 FEET WITH NO
SIGNIFICANT WEATHER AND/OR OBSTRUCTIONS TO VISIBILITY.


CITY           SKY/WX    TMP DP  RH WIND       PRES   REMARKS
WILLISTON      CLOUDY    20  15  81 NW9       29.87F WCI   9
MINOT          CLOUDY    24  19  81 W12       29.85R WCI  13
MINOT AFB      NOT AVBL
BISMARCK       CLOUDY    25  19  78 NW3       29.88R
DICKINSON      CLOUDY    20  17  88 NW8       29.81R WCI  10
GARRISON         N/A     21  17  84 NW8       29.85R WCI  11
HETTINGER ARPT CLOUDY    21  18  88 N10       29.81R WCI  10
JAMESTOWN      CLOUDY    22  19  89 NW10      29.86S WCI  11
CARRINGTON     CLOUDY    23  19  86 W8        29.87S WCI  14
HAZEN            N/A    N/A N/A N/A NW6       29.88S
MANDAN         CLOUDY    23  19  86 N8        29.86S WCI  14
STANLEY        CLOUDY    19  19 100 NW9       29.85S WCI   9
$$

CITY           SKY/WX    TMP DP  RH WIND       PRES   REMARKS
GRAND FORKS    CLOUDY    26  20  77 W6        29.87S WCI  19
GRAND FORKS AF CLOUDY    25  20  80 W6        29.87S WCI  18
DEVILS LAKE    CLOUDY    23  20  88 W13       29.84S WCI  11
FARGO          CLOUDY    30  25  81 NW8       29.89R
GRAFTON        CLOUDY    25  23  93 W9        29.87F WCI  15
GWINNER        CLOUDY    30  30 100 CALM      29.88R
$$

CITY           SKY/WX    TMP DP  RH WIND       PRES   REMARKS
ABERDEEN       LGT SNOW  28  25  88 NE9       29.85S FOG     WCI  19
MOBRIDGE       CLOUDY    28  22  78 N14       29.79S WCI  17
BUFFALO          N/A     24  20  84 N12       29.71S WCI  13
RAPID CITY     LGT SNOW  21  20  96 N16G26    29.73R FOG     WCI   7
GLASGOW        CLOUDY    20  15  81 NW6       29.87S WCI  12
SIDNEY         FLURRIES  21  17  84 NW9       29.88S WCI  11
WOLF POINT     CLOUDY    21  15  78 W6        29.90S WCI  13
GLENDIVE       FLURRIES  20  16  84 NW10      29.86S WCI   9
MILES CITY     CLOUDY    22  18  85 N7        29.86R WCI  13
BAKER          CLOUDY    21  18  88 N6        29.83R WCI  13
$$

CITY           SKY/WX    TMP DP  RH WIND       PRES   REMARKS
BILLINGS       FLURRIES  22  20  92 NE7       29.82R WCI  13
GREAT FALLS    FAIR       9   7  92 SW7       29.85S WCI  -2
$$




USA.gov is the U.S. government's official web portal to all federal, state and local government web resources and services.